Weather History for West Plains, MO

Change the Weather History Date:

Thursday, May 9, 2013

  Actual Average Record
Temperature  
Mean Temperature 70 °F 64 °F  
Max Temperature 79 °F 75 °F 85 °F (1963)
Min Temperature 61 °F 52 °F 34 °F (1976)
Degree Days  
Heating Degree Days 0 3  
Month to date heating degree days 87 36  
Since 1 July heating degree days 4449 4298  
Cooling Degree Days 5 2  
Month to date cooling degree days 7 14  
Year to date cooling degree days 26 42  
Growing Degree Days 19 (Base 50)    
Moisture  
Dew Point 57 °F    
Average Humidity 69    
Maximum Humidity 93    
Minimum Humidity 45    
Precipitation  
Precipitation 0.11 in 0.17 in 1.91 in (1965)
Month to date precipitation 1.56 1.85  
Year to date precipitation 17.84 16.18  
Sea Level Pressure  
Sea Level Pressure 29.95 in    
Wind  
Wind Speed 7 mph (SW)    
Max Wind Speed 22 mph    
Max Gust Speed 29 mph    
Visibility 9 miles    
Events Rain , Thunderstorm    
T = Trace of Precipitation, MM = Missing Value Source: NWS Daily Summary

Daily Weather History Graph

Daily Weather History Graph

Search for Another Location

Airport:

Trip Planner

Search our weather history database for the weather conditions in past years. The results will help you decide how hot, cold, wet, or windy it might be!

Date:

Astronomy

May. 09, 2013 Rise Set
Actual Time 6:04 AM CDT 8:03 PM CDT
Civil Twilight 5:36 AM CDT 8:32 PM CDT
Nautical Twilight 5:01 AM CDT 9:06 PM CDT
Astronomical Twilight 4:24 AM CDT 9:44 PM CDT
Moon 5:48 AM CDT (5/9) 7:59 PM CDT (5/9)
Length of Visible Light 14h 55m
Length of Day
13h 58m
Waning Crescent, 0% of the Moon is Illuminated
May 9
Waning Crescent
May 9
New
May 17
First Quarter
May 24
Full
May 31
Last Quarter

Hourly Weather History & Observations

Time (CDT) Temp. Dew Point Humidity Pressure Visibility Wind Dir Wind Speed Gust Speed Precip Events Conditions
12:53 AM 64.0 °F 55.0 °F 73% 29.99 in 10.0 mi South 4.6 mph - N/A   Clear
1:53 AM 63.0 °F 55.0 °F 75% 29.97 in 10.0 mi South 5.8 mph - N/A   Partly Cloudy
2:53 AM 64.9 °F 55.0 °F 70% 29.97 in 10.0 mi South 5.8 mph - N/A   Mostly Cloudy
3:53 AM 64.0 °F 55.0 °F 73% 29.96 in 10.0 mi South 5.8 mph - N/A   Partly Cloudy
4:53 AM 63.0 °F 55.0 °F 75% 29.95 in 10.0 mi Calm Calm - N/A   Clear
5:53 AM 61.0 °F 55.0 °F 81% 29.95 in 10.0 mi SSE 3.5 mph - N/A   Mostly Cloudy
6:25 AM 62.6 °F 55.4 °F 77% 29.98 in 10.0 mi South 4.6 mph - N/A Thunderstorm Overcast
6:53 AM 62.1 °F 55.9 °F 80% 29.96 in 7.0 mi Calm Calm - 0.01 in Rain , Thunderstorm Light Thunderstorms and Rain
7:15 AM 60.8 °F 57.2 °F 88% 29.98 in 10.0 mi Calm Calm - 0.00 in   Overcast
7:53 AM 63.0 °F 57.0 °F 81% 29.96 in 10.0 mi South 3.5 mph - 0.00 in   Overcast
8:53 AM 64.9 °F 59.0 °F 81% 29.98 in 10.0 mi SSW 9.2 mph 18.4 mph N/A   Overcast
9:04 AM 64.4 °F 59.0 °F 83% 30.02 in 5.0 mi SW 15.0 mph 25.3 mph 0.01 in Rain , Thunderstorm Light Rain
9:13 AM 62.6 °F 60.8 °F 94% 30.02 in 2.0 mi SW 13.8 mph 25.3 mph 0.04 in Rain Rain
9:22 AM 62.6 °F 60.8 °F 94% 30.02 in 3.0 mi SW 9.2 mph 28.8 mph 0.07 in Rain Rain
9:53 AM 63.0 °F 60.1 °F 90% 29.97 in 10.0 mi South 9.2 mph - 0.10 in   Mostly Cloudy
10:53 AM 66.0 °F 61.0 °F 84% 29.95 in 10.0 mi South 10.4 mph - N/A   Scattered Clouds
1:53 PM 75.0 °F 53.1 °F 46% 29.92 in 10.0 mi WSW 10.4 mph 20.7 mph N/A   Mostly Cloudy
2:53 PM 78.1 °F 55.0 °F 45% 29.92 in 10.0 mi SW 10.4 mph 18.4 mph N/A   Scattered Clouds
3:53 PM 78.1 °F 55.0 °F 45% 29.91 in 10.0 mi WNW 10.4 mph 17.3 mph N/A   Partly Cloudy
4:53 PM 78.1 °F 55.0 °F 45% 29.91 in 10.0 mi West 8.1 mph - N/A   Overcast
5:53 PM 75.9 °F 55.9 °F 50% 29.89 in 10.0 mi West 4.6 mph - N/A   Partly Cloudy
6:53 PM 72.0 °F 59.0 °F 64% 29.88 in 10.0 mi Calm Calm - N/A   Partly Cloudy
7:53 PM 72.0 °F 57.9 °F 61% 29.90 in 10.0 mi SW 4.6 mph - N/A   Mostly Cloudy
9:51 PM 69.8 °F 57.2 °F 64% 29.95 in 10.0 mi West 12.7 mph - N/A   Mostly Cloudy
9:53 PM 68.0 °F 57.9 °F 70% 29.93 in 10.0 mi West 12.7 mph 20.7 mph N/A   Mostly Cloudy
10:53 PM 64.9 °F 57.9 °F 78% 29.94 in 10.0 mi West 8.1 mph - N/A   Partly Cloudy
11:53 PM 63.0 °F 55.9 °F 78% 29.94 in 10.0 mi WSW 4.6 mph - N/A   Mostly Cloudy